�N����,����,�~����,�C��,���x,�C��,����,���ϕ���,�ő�u�ԕ���,�ő厞����,���˗�,�I�_���x,�n�����x,�ő啗���N��,DTYPE
"23/05/30","00:10",0.6,21.0,96.7,1004.8,327.8,0.8,1.9,54.8,0.00,20.5,20.7,"00:07:12",1
"23/05/30","00:20",0.6,20.9,96.8,1005.0,304.3,1.1,2.1,311.3,0.00,20.4,20.7,"00:13:20",1
"23/05/30","00:30",0.6,20.9,96.8,1004.5,330.2,1.1,1.6,344.8,0.00,20.4,20.9,"00:25:44",1
"23/05/30","00:40",0.4,20.8,96.9,1004.5,320.0,1.2,2.1,319.7,0.00,20.3,20.8,"00:32:24",1
"23/05/30","00:50",0.4,20.8,96.9,1004.3,317.4,0.8,1.8,333.7,0.00,20.3,20.6,"00:40:48",1
"23/05/30","01:00",0.4,20.8,97.0,1004.1,260.1,0.5,1.1,248.0,0.00,20.3,20.7,"00:58:24",1
"23/05/30","01:10",0.4,20.8,97.0,1004.1,260.0,0.7,1.7,241.3,0.00,20.3,20.8,"01:03:12",1
"23/05/30","01:20",0.4,20.7,97.0,1004.1,305.8,0.6,1.0,271.9,0.00,20.2,20.8,"01:11:52",1
"23/05/30","01:30",0.2,20.7,97.0,1004.1,342.9,0.6,1.2,340.1,0.00,20.2,20.7,"01:22:16",1
"23/05/30","01:40",0.2,20.7,97.0,1003.8,296.4,0.5,1.0,247.2,0.00,20.2,20.7,"01:32:08",1
"23/05/30","01:50",0.2,20.7,97.1,1003.8,334.7,0.5,1.3,340.8,0.00,20.3,20.5,"01:48:48",1
"23/05/30","02:00",0.6,20.4,97.2,1004.1,331.6,1.3,2.6,314.3,0.00,20.0,20.6,"01:56:32",1
"23/05/30","02:10",0.2,20.3,97.3,1004.1,300.6,1.0,1.8,335.2,0.00,19.9,20.7,"02:09:12",1
"23/05/30","02:20",0.2,20.2,97.3,1004.1,327.1,1.2,2.1,316.6,0.00,19.8,20.7,"02:11:52",1
"23/05/30","02:30",0.4,20.1,97.4,1003.8,340.5,1.0,2.0,347.0,0.00,19.7,20.7,"02:24:24",1
"23/05/30","02:40",0.0,20.0,97.4,1004.1,330.3,0.8,1.7,341.0,0.00,19.6,20.5,"02:38:16",1
"23/05/30","02:50",0.0,20.0,97.4,1003.6,333.6,1.2,2.4,341.8,0.00,19.6,20.6,"02:40:16",1
"23/05/30","03:00",0.0,19.9,97.5,1003.6,329.1,1.5,2.9,346.1,0.00,19.5,20.6,"02:59:28",1
"23/05/30","03:10",0.2,19.7,97.6,1003.8,324.8,1.6,2.8,316.7,0.00,19.3,20.5,"03:00:24",1
"23/05/30","03:20",0.0,19.7,97.6,1003.8,313.4,1.5,2.8,337.2,0.00,19.3,20.4,"03:18:24",1
"23/05/30","03:30",0.4,19.6,97.7,1004.1,329.2,1.7,3.3,311.3,0.00,19.3,20.4,"03:23:52",1
"23/05/30","03:40",0.0,19.6,97.7,1003.8,330.8,1.3,2.5,348.4,0.00,19.3,20.5,"03:33:36",1
"23/05/30","03:50",0.0,19.4,97.7,1003.8,329.6,1.6,2.7,341.6,0.00,19.1,20.4,"03:40:48",1
"23/05/30","04:00",0.0,19.4,97.8,1003.8,312.5,1.5,2.9,293.7,0.00,19.1,20.6,"03:55:04",1
"23/05/30","04:10",0.0,19.3,97.8,1004.1,326.7,2.0,3.1,334.7,0.00,19.0,20.4,"04:04:00",1
"23/05/30","04:20",0.0,19.4,97.8,1003.6,330.0,1.3,2.8,340.0,0.00,19.1,20.4,"04:11:28",1
"23/05/30","04:30",0.2,19.4,97.8,1003.6,316.9,1.0,1.9,330.8,0.00,19.1,20.3,"04:22:00",1
"23/05/30","04:40",0.0,19.3,97.9,1003.8,299.8,1.1,2.9,349.9,0.00,19.0,20.3,"04:33:36",1
"23/05/30","04:50",0.0,19.3,97.9,1003.6,315.5,1.2,3.2,329.5,0.00,19.0,20.4,"04:42:32",1
"23/05/30","05:00",0.0,19.3,97.9,1004.1,315.9,1.0,2.0,302.3,0.00,19.0,20.6,"04:56:16",1
"23/05/30","05:10",0.0,19.4,97.9,1004.3,335.0,0.7,1.4,326.9,0.00,19.1,20.2,"05:06:40",1
"23/05/30","05:20",0.0,19.3,97.9,1004.3,301.4,0.7,1.3,346.2,0.00,19.0,20.4,"05:12:40",1
"23/05/30","05:30",0.0,19.3,97.9,1003.6,0.9,0.3,1.6,357.8,0.00,19.0,20.3,"05:24:24",1
"23/05/30","05:40",0.0,19.3,97.9,1004.3,358.0,0.6,1.6,355.4,0.00,19.0,20.2,"05:30:56",1
"23/05/30","05:50",0.0,19.2,97.9,1004.5,324.3,0.3,1.2,331.8,0.00,18.9,20.3,"05:40:56",1
"23/05/30","06:00",0.0,19.2,97.9,1004.3,320.2,0.5,1.0,5.0,0.00,18.9,20.3,"05:50:08",1
"23/05/30","06:10",0.0,19.3,97.9,1004.1,324.2,0.5,1.0,332.7,0.00,19.0,20.4,"06:09:20",1
"23/05/30","06:20",0.0,19.4,97.9,1004.5,332.4,0.7,1.3,340.7,0.00,19.1,20.3,"06:18:24",1
"23/05/30","06:30",0.2,19.3,97.9,1004.8,320.9,0.6,1.1,331.3,0.00,19.0,20.4,"06:22:00",1
"23/05/30","06:40",0.2,19.3,98.0,1005.2,333.5,1.0,1.9,324.8,0.00,19.0,20.2,"06:31:52",1
"23/05/30","06:50",0.0,19.3,97.5,1004.8,345.7,0.6,1.1,28.1,0.00,18.9,20.2,"06:48:08",1
"23/05/30","07:00",0.0,19.2,98.0,1004.5,345.7,0.8,1.9,351.2,0.00,18.9,20.1,"06:51:36",1
"23/05/30","07:10",0.2,19.3,97.5,1005.0,324.7,1.5,2.4,348.2,0.00,18.9,20.3,"07:08:40",1
"23/05/30","07:20",0.2,19.1,98.0,1005.0,334.6,1.8,2.7,325.7,0.01,18.8,20.2,"07:19:20",1
"23/05/30","07:30",0.2,19.2,97.6,1004.5,330.3,1.6,2.9,346.1,0.02,18.9,20.3,"07:22:08",1
"23/05/30","07:40",0.0,19.2,98.0,1004.8,323.0,1.6,2.2,325.0,0.03,18.9,20.2,"07:34:48",1
"23/05/30","07:50",0.0,19.4,97.5,1005.0,322.5,1.5,2.1,313.6,0.03,19.0,20.2,"07:42:24",1
"23/05/30","08:00",0.0,19.3,98.0,1004.8,323.0,1.5,2.6,321.9,0.04,19.0,20.2,"07:53:52",1
"23/05/30","08:10",0.0,19.4,97.5,1004.8,333.4,1.7,2.7,310.2,0.04,19.0,20.1,"08:04:56",1
"23/05/30","08:20",0.2,19.2,97.9,1005.5,323.5,2.0,2.9,323.4,0.05,18.9,20.1,"08:18:48",1
"23/05/30","08:30",0.0,19.4,98.0,1005.0,324.0,1.6,2.9,332.4,0.04,19.1,20.2,"08:20:08",1
"23/05/30","08:40",0.0,19.6,97.4,1005.0,329.9,1.5,2.6,312.0,0.06,19.2,20.2,"08:30:32",1
"23/05/30","08:50",0.0,19.5,97.9,1005.0,329.0,1.8,2.8,326.2,0.08,19.2,20.2,"08:44:48",1
"23/05/30","09:00",0.0,19.6,97.9,1005.0,328.6,2.1,2.9,321.9,0.10,19.3,20.1,"08:59:20",1
"23/05/30","09:10",0.0,19.6,97.9,1005.0,330.9,2.2,3.2,353.9,0.10,19.3,20.1,"09:00:16",1
"23/05/30","09:20",0.0,19.7,97.8,1005.0,321.4,2.1,3.3,345.5,0.18,19.4,20.1,"09:16:24",1
"23/05/30","09:30",0.0,19.9,97.7,1005.0,315.0,2.1,3.4,339.5,0.17,19.6,20.1,"09:21:44",1
"23/05/30","09:40",0.0,20.2,97.3,1005.0,317.7,2.1,3.2,339.1,0.26,19.8,20.1,"09:37:52",1
"23/05/30","09:50",0.0,20.7,96.8,1004.8,321.0,2.0,3.6,337.8,0.34,20.2,20.1,"09:48:24",1
"23/05/30","10:00",0.0,20.8,96.0,1004.3,325.2,2.0,3.5,334.2,0.33,20.2,20.1,"09:50:56",1
"23/05/30","10:10",0.0,21.0,94.9,1004.3,332.1,1.8,4.2,340.9,0.26,20.2,20.2,"10:09:44",1
"23/05/30","10:20",0.0,21.5,94.4,1004.5,335.6,1.5,3.5,334.9,0.25,20.6,20.2,"10:13:04",1
"23/05/30","10:30",0.0,21.4,93.3,1004.5,344.2,1.6,3.4,337.4,0.20,20.3,20.2,"10:29:36",1
"23/05/30","10:40",0.0,21.8,91.8,1004.5,344.4,1.7,3.4,342.9,0.20,20.4,20.2,"10:30:24",1
"23/05/30","10:50",0.0,21.9,89.4,1005.0,329.3,2.0,3.3,337.6,0.15,20.1,20.2,"10:44:48",1
"23/05/30","11:00",0.0,21.6,86.5,1005.5,326.3,2.6,5.5,333.6,0.17,19.3,20.3,"10:54:56",1
"23/05/30","11:10",0.0,21.4,84.4,1005.7,331.4,3.1,5.5,334.1,0.14,18.7,20.2,"11:08:40",1
"23/05/30","11:20",0.0,21.7,83.5,1005.7,328.2,2.3,4.5,326.3,0.13,18.8,20.2,"11:11:04",1
"23/05/30","11:30",0.0,21.8,82.6,1005.5,327.8,2.8,4.9,333.3,0.18,18.7,20.2,"11:29:12",1
"23/05/30","11:40",0.0,22.3,81.1,1005.5,331.4,3.1,5.8,334.6,0.25,18.9,20.2,"11:33:04",1
"23/05/30","11:50",0.0,23.2,78.7,1005.0,329.3,2.7,4.8,348.3,0.45,19.3,20.3,"11:45:28",1
"23/05/30","12:00",0.0,24.1,75.2,1005.0,342.9,2.0,3.7,340.5,0.48,19.5,20.3,"11:50:24",1
"23/05/30","12:10",0.0,24.3,73.1,1005.0,344.4,2.3,4.2,320.6,0.55,19.2,20.3,"12:04:16",1
"23/05/30","12:20",0.0,24.2,71.8,1004.8,338.8,2.5,4.7,347.5,0.41,18.8,20.3,"12:18:32",1
"23/05/30","12:30",0.0,24.5,71.0,1004.5,324.7,1.6,3.4,341.8,0.41,18.9,20.3,"12:24:40",1
"23/05/30","12:40",0.0,24.6,69.1,1004.3,275.4,1.7,5.0,322.6,0.56,18.6,20.3,"12:37:44",1
"23/05/30","12:50",0.0,24.9,67.6,1003.8,319.2,2.2,4.3,346.5,0.55,18.5,20.4,"12:45:20",1
"23/05/30","13:00",0.0,24.8,68.0,1003.6,308.4,1.5,3.1,358.4,0.21,18.5,20.3,"12:54:56",1
"23/05/30","13:10",0.0,24.2,68.3,1003.6,327.7,2.1,5.1,309.5,0.21,18.0,20.4,"13:09:20",1
"23/05/30","13:20",0.0,24.2,69.2,1003.4,328.5,3.2,5.4,322.5,0.34,18.2,20.5,"13:13:20",1
"23/05/30","13:30",0.0,25.5,66.4,1003.4,352.3,2.1,4.0,358.7,0.60,18.8,20.6,"13:26:00",1
"23/05/30","13:40",0.0,25.7,64.9,1003.1,281.0,1.8,4.1,355.4,0.48,18.6,20.6,"13:38:32",1
"23/05/30","13:50",0.0,24.9,64.2,1002.9,300.2,1.6,3.5,323.4,0.20,17.7,20.6,"13:40:24",1
"23/05/30","14:00",0.0,24.7,66.6,1003.1,328.4,1.7,3.6,334.1,0.14,18.1,20.6,"13:53:12",1
"23/05/30","14:10",0.0,25.6,67.9,1002.9,306.1,1.3,2.8,321.2,0.36,19.3,20.7,"14:05:44",1
"23/05/30","14:20",0.0,25.7,65.6,1002.6,340.8,1.5,2.9,349.4,0.24,18.8,20.7,"14:11:52",1
"23/05/30","14:30",0.0,26.1,64.4,1002.4,356.9,1.8,3.6,345.9,0.48,18.9,20.8,"14:22:56",1
"23/05/30","14:40",0.0,26.6,62.2,1001.9,30.4,1.3,3.2,346.3,0.39,18.8,20.8,"14:31:12",1
"23/05/30","14:50",0.0,26.9,61.9,1002.2,346.3,0.8,2.0,338.4,0.32,19.0,20.7,"14:42:16",1
"23/05/30","15:00",0.0,26.9,60.6,1002.2,293.0,1.0,2.2,347.8,0.32,18.7,20.8,"14:55:44",1
"23/05/30","15:10",0.0,26.9,62.2,1002.4,7.9,0.8,3.6,357.7,0.26,19.1,20.8,"15:08:08",1
"23/05/30","15:20",0.0,26.5,63.9,1001.9,282.5,1.1,2.6,244.8,0.29,19.2,20.9,"15:12:00",1
"23/05/30","15:30",0.0,27.0,61.2,1002.2,331.1,1.1,2.2,341.5,0.30,18.9,21.1,"15:26:48",1
"23/05/30","15:40",0.0,26.7,61.0,1002.2,346.3,1.3,3.4,347.5,0.22,18.6,21.0,"15:39:52",1
"23/05/30","15:50",0.0,25.6,63.9,1001.5,353.3,2.1,4.5,346.0,0.14,18.3,21.0,"15:44:32",1
"23/05/30","16:00",0.0,26.0,65.2,1001.9,359.9,2.1,5.1,343.1,0.32,19.0,21.1,"15:50:02",1
"23/05/30","16:10",0.0,25.7,63.2,1001.7,348.6,2.5,5.7,341.8,0.28,18.2,21.2,"16:03:28",1
"23/05/30","16:20",0.0,25.0,65.8,1001.9,345.4,2.2,4.8,332.6,0.19,18.2,21.1,"16:11:52",1
"23/05/30","16:30",0.0,25.0,66.6,1001.9,349.8,2.3,5.0,346.6,0.18,18.4,21.0,"16:21:20",1
"23/05/30","16:40",0.0,24.9,66.8,1001.9,346.7,2.2,5.6,343.3,0.18,18.3,21.0,"16:39:52",1
"23/05/30","16:50",0.0,24.8,67.3,1001.9,346.9,2.3,4.4,347.8,0.17,18.4,21.2,"16:46:00",1
"23/05/30","17:00",0.0,24.4,67.5,1001.9,349.3,2.5,5.0,358.6,0.15,18.0,21.2,"16:50:32",1
"23/05/30","17:10",0.0,24.1,65.8,1001.7,352.2,2.5,4.8,353.6,0.14,17.3,21.2,"17:03:28",1
"23/05/30","17:20",0.0,23.7,65.9,1002.2,354.3,2.8,5.4,23.7,0.07,17.0,21.3,"17:10:32",1
"23/05/30","17:30",0.0,23.5,67.2,1001.9,351.1,2.6,5.5,342.3,0.08,17.1,21.1,"17:22:40",1
"23/05/30","17:40",0.0,23.2,69.1,1002.6,344.3,2.6,5.8,349.4,0.06,17.3,21.2,"17:37:44",1
"23/05/30","17:50",0.0,22.9,69.9,1002.2,345.4,2.5,5.1,349.0,0.04,17.2,21.0,"17:48:32",1
"23/05/30","18:00",0.0,22.6,70.2,1002.6,340.5,2.8,5.4,336.3,0.02,16.9,21.1,"17:58:16",1
"23/05/30","18:10",0.0,22.3,71.0,1002.9,331.9,3.1,5.5,323.7,0.02,16.8,21.0,"18:02:32",1
"23/05/30","18:20",0.0,22.1,71.3,1003.1,342.2,2.6,4.3,338.7,0.04,16.7,21.1,"18:16:00",1
"23/05/30","18:30",0.0,21.9,72.0,1002.9,341.5,2.5,5.8,5.4,0.02,16.7,21.1,"18:23:12",1
"23/05/30","18:40",0.0,21.6,72.9,1002.9,350.4,2.2,4.1,354.8,0.01,16.6,21.0,"18:38:08",1
"23/05/30","18:50",0.0,21.5,74.0,1003.1,346.2,2.3,4.4,346.7,0.01,16.7,21.2,"18:42:40",1
"23/05/30","19:00",0.0,21.2,75.1,1003.6,334.8,2.1,3.5,316.8,0.00,16.7,21.1,"18:54:48",1
"23/05/30","19:10",0.0,21.0,75.6,1004.3,336.1,2.6,4.7,336.7,0.00,16.6,21.2,"19:08:56",1
"23/05/30","19:20",0.0,21.0,76.0,1004.1,340.9,1.8,3.9,330.1,0.00,16.7,21.0,"19:10:24",1
"23/05/30","19:30",0.0,20.8,76.4,1004.1,340.8,2.5,5.0,346.9,0.00,16.5,20.9,"19:28:24",1
"23/05/30","19:40",0.0,20.5,76.7,1004.1,344.3,2.0,4.1,5.0,0.00,16.3,21.0,"19:36:00",1
"23/05/30","19:50",0.0,20.3,76.9,1004.5,349.9,2.5,5.1,359.6,0.00,16.2,21.0,"19:49:44",1
"23/05/30","20:00",0.0,20.1,77.5,1004.5,352.1,2.6,6.6,0.1,0.00,16.1,20.9,"19:58:32",1
"23/05/30","20:10",0.0,19.9,78.3,1004.3,342.3,2.7,5.1,345.5,0.00,16.1,20.8,"20:03:12",1
"23/05/30","20:20",0.0,19.5,79.4,1004.5,340.4,2.7,4.3,359.6,0.00,15.9,21.0,"20:14:16",1
"23/05/30","20:30",0.0,19.3,80.1,1004.5,343.2,2.7,5.2,342.3,0.00,15.8,20.7,"20:20:32",1
"23/05/30","20:40",0.0,19.2,80.8,1004.5,331.8,2.6,4.9,342.8,0.00,15.9,20.8,"20:37:04",1
"23/05/30","20:50",0.0,19.0,81.2,1005.0,320.2,2.5,3.7,346.1,0.00,15.7,20.6,"20:41:36",1
"23/05/30","21:00",0.0,19.0,80.9,1004.8,325.2,3.0,5.2,328.7,0.00,15.7,20.7,"20:57:04",1
"23/05/30","21:10",0.0,19.2,80.3,1005.5,325.1,2.8,4.0,334.4,0.00,15.8,20.5,"21:06:08",1
"23/05/30","21:20",0.0,19.1,79.9,1005.0,313.4,2.6,4.8,326.3,0.00,15.6,20.5,"21:16:08",1
"23/05/30","21:30",0.0,19.1,79.9,1005.5,320.6,3.2,6.2,305.6,0.00,15.6,20.8,"21:28:32",1
"23/05/30","21:40",0.0,19.0,80.0,1005.7,332.1,3.2,5.1,334.7,0.00,15.5,20.4,"21:39:28",1
"23/05/30","21:50",0.0,19.0,80.3,1005.5,332.7,4.0,6.4,329.9,0.00,15.6,20.6,"21:44:08",1
"23/05/30","22:00",0.0,18.9,80.5,1005.7,333.7,4.1,9.3,346.8,0.00,15.5,20.4,"21:54:16",1
"23/05/30","22:10",0.0,18.8,80.9,1005.5,342.2,3.6,6.3,346.3,0.00,15.5,20.4,"22:03:04",1
"23/05/30","22:20",0.0,18.7,81.1,1005.5,341.6,2.1,3.7,344.5,0.00,15.4,20.4,"22:13:20",1
"23/05/30","22:30",0.0,18.7,81.1,1006.0,350.8,1.1,2.1,104.6,0.00,15.4,20.5,"22:23:28",1
"23/05/30","22:40",0.0,18.7,81.8,1006.0,324.9,1.7,3.3,336.3,0.00,15.6,20.2,"22:31:36",1
"23/05/30","22:50",0.0,18.5,82.6,1006.7,305.4,1.2,1.8,255.9,0.00,15.5,20.3,"22:40:32",1
"23/05/30","23:00",0.0,18.3,83.3,1006.7,320.4,1.6,3.2,207.7,0.00,15.5,20.4,"22:57:44",1
"23/05/30","23:10",0.0,18.3,83.5,1006.4,343.6,2.1,4.3,336.3,0.00,15.5,20.1,"23:08:24",1
"23/05/30","23:20",0.0,18.5,82.7,1006.0,344.1,2.2,4.3,330.0,0.00,15.5,20.4,"23:18:00",1
"23/05/30","23:30",0.0,18.6,82.1,1005.2,334.9,1.3,2.4,356.6,0.00,15.5,20.1,"23:20:16",1
"23/05/30","23:40",0.0,18.6,82.0,1005.2,338.0,1.7,2.7,344.2,0.00,15.5,20.2,"23:37:12",1
"23/05/30","23:50",0.0,18.5,82.4,1005.0,336.9,1.8,2.9,341.3,0.00,15.5,20.1,"23:46:16",1
"23/05/30","24:00",0.0,18.4,83.0,1005.0,336.7,2.0,4.0,341.4,0.00,15.5,20.0,"23:57:44",1
